Volver al catálogo

SPHEREX DEB

ActivoSSO
NORAD 63332·DEBRIS·🇺🇸 United States

Lanzado Mar 12, 2025 desde Vandenberg Space Force Base

Loading…

Próximos Pases (próximas 24 horas)

TLE

ActualizadoSource: Space-Track

Época: Sep 14, 2026, 11:18 UTC

1 63332U 25047F   26257.47136524  .00004886  00000-0  62532-3 0  9996
2 63332  97.9517  84.1273 0005812 238.7494 121.3150 14.81791214 80330

Sigue SPHEREX DEB en tiempo real con AllMySat

Download on the App Store